Total_Precipitation_Accumulation
0.51 0.51 0.54 0.57 0.61 0.70 0.81 0.89 0.91 0.90 0.88 0.93 1.04 1.10 1.08 1.06 1.04 1.01 0.96 0.92 0.90 0.87 0.86 0.89 0.90 0.90 0.95 0.97 1.01 1.09 1.20 1.33 1.38 1.14 0.96 0.95 0.98 0.98 0.97 0.87 0.81 0.81 0.79
0.40 0.39 0.41 0.42 0.43 0.49 0.58 0.67 0.72 0.76 0.79 0.79 0.78 0.82 0.88 0.91 0.92 0.93 0.90 0.86 0.82 0.80 0.79 0.81 0.83 0.85 0.91 0.95 1.01 1.08 1.14 1.21 1.26 1.16 0.98 0.90 0.84 0.77 0.73 0.69 0.63 0.61 0.59
0.30 0.30 0.31 0.33 0.32 0.33 0.37 0.43 0.47 0.53 0.62 0.66 0.66 0.65 0.64 0.65 0.67 0.71 0.77 0.79 0.78 0.76 0.78 0.82 0.84 0.88 0.91 0.95 1.01 1.06 1.08 1.06 1.04 0.98 0.84 0.72 0.66 0.61 0.61 0.58 0.52 0.50 0.48
0.25 0.24 0.25 0.26 0.27 0.27 0.27 0.29 0.31 0.33 0.36 0.40 0.44 0.47 0.50 0.52 0.52 0.53 0.57 0.65 0.72 0.76 0.78 0.82 0.87 0.95 1.02 1.06 1.06 1.04 1.00 0.96 0.91 0.86 0.78 0.68 0.60 0.53 0.53 0.54 0.51 0.45 0.42
0.22 0.20 0.19 0.19 0.21 0.22 0.21 0.20 0.18 0.16 0.17 0.21 0.26 0.30 0.35 0.39 0.43 0.47 0.48 0.52 0.57 0.65 0.74 0.82 0.89 0.99 1.02 0.96 0.88 0.81 0.76 0.75 0.74 0.74 0.70 0.61 0.53 0.48 0.46 0.42 0.42 0.40 0.38
0.20 0.18 0.17 0.18 0.19 0.20 0.18 0.14 0.12 0.12 0.12 0.14 0.18 0.22 0.27 0.32 0.44 0.45 0.42 0.45 0.53 0.59 0.64 0.69 0.76 0.81 0.76 0.72 0.67 0.62 0.63 0.66 0.67 0.60 0.52 0.45 0.37 0.33 0.32 0.36 0.41 0.46 0.46
0.27 0.23 0.21 0.21 0.20 0.21 0.21 0.20 0.19 0.18 0.19 0.20 0.20 0.22 0.26 0.35 0.46 0.47 0.52 0.49 0.53 0.57 0.57 0.55 0.52 0.52 0.53 0.46 0.47 0.47 0.48 0.49 0.46 0.42 0.40 0.34 0.30 0.27 0.33 0.40 0.41 0.41 0.35
0.39 0.37 0.34 0.34 0.37 0.39 0.41 0.40 0.38 0.37 0.37 0.37 0.37 0.37 0.40 0.48 0.54 0.51 0.51 0.47 0.46 0.45 0.41 0.37 0.34 0.33 0.34 0.36 0.38 0.40 0.34 0.30 0.28 0.25 0.23 0.22 0.24 0.28 0.35 0.42 0.42 0.42 0.35
0.57 0.61 0.60 0.59 0.63 0.66 0.71 0.72 0.68 0.65 0.63 0.62 0.62 0.60 0.57 0.56 0.51 0.41 0.35 0.32 0.30 0.28 0.25 0.23 0.22 0.21 0.25 0.30 0.31 0.31 0.29 0.27 0.26 0.27 0.27 0.26 0.28 0.31 0.34 0.39 0.46 0.55 0.50
0.71 0.76 0.73 0.72 0.73 0.74 0.74 0.74 0.70 0.64 0.61 0.58 0.56 0.52 0.46 0.39 0.32 0.24 0.19 0.16 0.15 0.14 0.14 0.14 0.17 0.19 0.25 0.31 0.28 0.27 0.27 0.25 0.26 0.28 0.28 0.27 0.25 0.26 0.31 0.30 0.34 0.53 0.55
0.70 0.66 0.60 0.56 0.51 0.48 0.46 0.43 0.41 0.37 0.34 0.31 0.28 0.24 0.19 0.15 0.13 0.11 0.10 0.08 0.08 0.11 0.13 0.13 0.15 0.21 0.27 0.32 0.33 0.28 0.26 0.28 0.28 0.28 0.29 0.29 0.29 0.29 0.29 0.27 0.27 0.42 0.58
0.43 0.36 0.30 0.28 0.25 0.23 0.21 0.20 0.18 0.16 0.14 0.12 0.09 0.07 0.06 0.05 0.07 0.08 0.10 0.12 0.13 0.12 0.12 0.12 0.14 0.23 0.29 0.31 0.30 0.30 0.33 0.34 0.29 0.29 0.30 0.29 0.29 0.28 0.28 0.26 0.26 0.28 0.33
0.13 0.10 0.08 0.08 0.08 0.07 0.07 0.06 0.05 0.04 0.04 0.03 0.03 0.03 0.03 0.04 0.06 0.09 0.12 0.14 0.17 0.16 0.14 0.17 0.22 0.26 0.27 0.25 0.27 0.29 0.32 0.30 0.28 0.29 0.27 0.23 0.22 0.23 0.26 0.30 0.33 0.33 0.33
0.04 0.04 0.04 0.03 0.03 0.04 0.04 0.04 0.04 0.04 0.05 0.05 0.05 0.05 0.05 0.06 0.07 0.09 0.12 0.15 0.18 0.19 0.17 0.18 0.22 0.24 0.26 0.25 0.26 0.27 0.26 0.27 0.29 0.30 0.27 0.25 0.25 0.29 0.31 0.33 0.37 0.40 0.43
0.04 0.05 0.05 0.05 0.05 0.06 0.06 0.07 0.08 0.08 0.09 0.11 0.10 0.11 0.12 0.11 0.10 0.17 0.21 0.21 0.23 0.25 0.27 0.26 0.25 0.24 0.24 0.23 0.23 0.23 0.24 0.27 0.30 0.29 0.32 0.33 0.33 0.33 0.34 0.34 0.39 0.45 0.48
0.07 0.08 0.09 0.10 0.10 0.11 0.11 0.11 0.13 0.14 0.15 0.16 0.16 0.16 0.15 0.16 0.18 0.23 0.26 0.27 0.30 0.35 0.39 0.32 0.25 0.23 0.22 0.21 0.22 0.23 0.24 0.26 0.28 0.32 0.37 0.39 0.41 0.42 0.41 0.38 0.41 0.48 0.47
0.13 0.15 0.16 0.17 0.17 0.17 0.18 0.18 0.17 0.18 0.20 0.20 0.18 0.18 0.19 0.21 0.24 0.25 0.27 0.29 0.33 0.38 0.37 0.26 0.19 0.19 0.21 0.22 0.24 0.27 0.28 0.27 0.32 0.40 0.44 0.45 0.49 0.50 0.49 0.48 0.47 0.50 0.49
0.11 0.14 0.16 0.15 0.17 0.19 0.20 0.21 0.21 0.21 0.20 0.18 0.18 0.21 0.23 0.24 0.26 0.28 0.32 0.37 0.36 0.32 0.26 0.20 0.18 0.19 0.22 0.26 0.29 0.32 0.34 0.36 0.40 0.44 0.45 0.48 0.54 0.60 0.58 0.53 0.50 0.53 0.56
0.12 0.13 0.16 0.18 0.19 0.20 0.22 0.22 0.22 0.21 0.20 0.18 0.18 0.21 0.27 0.32 0.33 0.33 0.35 0.35 0.29 0.22 0.18 0.18 0.19 0.23 0.28 0.32 0.35 0.38 0.42 0.44 0.43 0.46 0.47 0.47 0.53 0.65 0.61 0.51 0.52 0.54 0.60
0.13 0.19 0.23 0.23 0.23 0.23 0.24 0.25 0.25 0.24 0.23 0.22 0.21 0.22 0.32 0.42 0.38 0.31 0.29 0.26 0.24 0.21 0.20 0.22 0.24 0.28 0.34 0.38 0.42 0.45 0.46 0.45 0.45 0.48 0.47 0.48 0.53 0.63 0.64 0.56 0.56 0.61 0.58
0.14 0.18 0.26 0.25 0.22 0.23 0.25 0.27 0.28 0.28 0.27 0.25 0.22 0.27 0.44 0.50 0.40 0.30 0.27 0.26 0.26 0.26 0.28 0.32 0.33 0.35 0.39 0.43 0.45 0.46 0.46 0.43 0.43 0.48 0.50 0.51 0.57 0.62 0.58 0.59 0.59 0.61 0.68
0.15 0.17 0.20 0.21 0.22 0.24 0.29 0.31 0.33 0.32 0.28 0.27 0.25 0.30 0.44 0.43 0.35 0.31 0.29 0.28 0.28 0.30 0.35 0.41 0.40 0.37 0.42 0.49 0.54 0.56 0.50 0.43 0.42 0.49 0.54 0.54 0.58 0.60 0.61 0.66 0.68 0.74 0.77
0.18 0.19 0.20 0.21 0.23 0.27 0.30 0.28 0.28 0.29 0.28 0.27 0.28 0.30 0.34 0.35 0.31 0.29 0.30 0.31 0.33 0.36 0.39 0.43 0.44 0.39 0.38 0.47 0.55 0.66 0.66 0.53 0.49 0.58 0.72 0.72 0.71 0.74 0.79 0.83 0.78 0.75 0.66
0.18 0.20 0.22 0.22 0.24 0.26 0.26 0.25 0.25 0.27 0.29 0.30 0.30 0.29 0.29 0.30 0.30 0.29 0.31 0.34 0.37 0.39 0.40 0.43 0.42 0.40 0.41 0.47 0.51 0.54 0.59 0.67 0.83 0.94 1.07 1.24 1.15 0.99 0.93 0.85 0.73 0.67 0.66
0.20 0.22 0.24 0.26 0.27 0.28 0.28 0.28 0.28 0.28 0.30 0.31 0.30 0.29 0.29 0.30 0.30 0.30 0.32 0.35 0.38 0.39 0.38 0.39 0.42 0.43 0.44 0.47 0.48 0.50 0.55 0.68 0.92 1.25 1.37 1.30 1.10 0.93 0.90 0.84 0.73 0.69 0.68
0.22 0.24 0.26 0.28 0.29 0.29 0.30 0.30 0.29 0.29 0.31 0.31 0.31 0.32 0.32 0.32 0.31 0.32 0.34 0.36 0.38 0.37 0.36 0.37 0.38 0.42 0.46 0.48 0.45 0.48 0.57 0.64 0.72 0.85 1.10 1.18 1.05 0.91 0.90 0.94 0.82 0.77 0.75